EW2137 Weather Reports


Display with metric or nautical units.
time (UTC)temp
F
wind
direction
speed
MPH
gust
MPH
rain 1hr
in
rain 24hr
in
rain mn
in
humidity
%
barometer
mb
20200329221648 54 221 13.0 19.0 0.00 0.00 0.00 54 1011.4
20200329221044 54 268 12.0 20.0 0.00 0.00 0.00 58 1011.5
20200329220525 53 265 14.0 20.0 0.00 0.00 0.00 55 1011.6
20200329220051 53 277 11.0 19.0 0.00 0.00 0.00 57 1011.6
20200329215524 54 278 12.0 18.0 0.00 0.00 0.00 57 1011.7
20200329215025 54 252 13.0 18.0 0.00 0.00 0.00 57 1011.7
20200329214652 53 275 14.0 19.0 0.00 0.00 0.00 55 1011.9
20200329214023 53 271 12.0 19.0 0.00 0.00 0.00 56 1011.8
20200329213523 53 252 11.0 19.0 0.00 0.00 0.00 59 1011.9
20200329213105 53 262 13.0 22.0 0.00 0.00 0.00 56 1012.0
20200329212523 53 273 13.0 20.0 0.00 0.00 0.00 55 1011.9
20200329212023 53 261 12.0 19.0 0.00 0.00 0.00 57 1012.0
20200329211553 53 273 12.0 19.0 0.00 0.00 0.00 54 1012.1
20200329211023 54 259 10.0 20.0 0.00 0.00 0.00 59 1012.1
20200329210530 53 263 11.0 20.0 0.00 0.00 0.00 56 1012.2
20200329210036 53 288 13.0 17.0 0.00 0.00 0.00 58 1012.3
20200329205522 53 269 9.0 14.0 0.00 0.00 0.00 56 1012.3
20200329205019 53 267 7.0 16.0 0.00 0.00 0.00 58 1012.3
20200329204527 53 240 11.0 17.0 0.00 0.00 0.00 58 1012.4
20200329204019 53 258 12.0 17.0 0.00 0.00 0.00 58 1012.4
20200329203519 53 285 8.0 17.0 0.00 0.00 0.00 60 1012.3
20200329203053 53 312 12.0 17.0 0.00 0.00 0.00 58 1012.4
20200329202532 53 263 8.0 16.0 0.00 0.00 0.00 57 1012.5
20200329202021 53 269 10.0 15.0 0.00 0.00 0.00 58 1012.5
20200329201531 53 244 9.0 17.0 0.00 0.00 0.00 56 1012.3
20200329201018 53 248 10.0 18.0 0.00 0.00 0.00 56 1012.4
20200329200517 53 242 12.0 18.0 0.00 0.00 0.00 56 1012.5
20200329200051 53 230 12.0 18.0 0.00 0.00 0.00 56 1012.5
20200329195520 53 214 12.0 22.0 0.00 0.00 0.00 56 1012.4
20200329195029 53 227 13.0 22.0 0.00 0.00 0.00 58 1012.6
20200329194530 53 215 13.0 22.0 0.00 0.00 0.00 57 1012.6
20200329194014 52 225 15.0 21.0 0.00 0.00 0.00 61 1012.7
20200329193514 52 206 14.0 20.0 0.00 0.00 0.00 59 1012.7
20200329193017 52 205 11.0 17.0 0.00 0.00 0.00 59 1012.8
20200329192514 51 215 13.0 18.0 0.00 0.00 0.00 60 1012.9
20200329192014 52 201 13.0 18.0 0.00 0.00 0.00 60 1013.0
20200329191527 52 215 13.0 20.0 0.00 0.00 0.00 59 1012.9
20200329191013 52 201 11.0 17.0 0.00 0.00 0.00 59 1012.9
20200329190512 52 258 13.0 17.0 0.00 0.00 0.00 59 1012.9
20200329190022 51 228 8.0 12.0 0.00 0.00 0.00 63 1012.9
20200329185510 50 252 5.0 9.0 0.00 0.00 0.00 68 1012.9
20200329185008 50 240 4.0 6.0 0.00 0.00 0.00 72 1012.9
20200329184510 49 278 2.0 10.0 0.00 0.00 0.00 72 1013.0
20200329184007 49 255 5.0 10.0 0.00 0.00 0.00 73 1013.0
20200329183506 49 259 4.0 10.0 0.00 0.00 0.00 73 1013.0
20200329183018 48 234 5.0 8.0 0.00 0.00 0.00 74 1013.1
20200329182505 48 274 3.0 8.0 0.00 0.00 0.00 76 1013.1
20200329182003 48 247 4.0 8.0 0.00 0.00 0.00 77 1013.1
20200329181507 47 273 5.0 8.0 0.00 0.00 0.00 74 1013.1
20200329181000 47 278 3.0 6.0 0.00 0.00 0.00 78 1013.1
20200329180602 47 277 4.0 6.0 0.00 0.00 0.00 76 1013.2
20200329180151 46 278 3.0 7.0 0.00 0.00 0.00 78 1013.1
20200329175558 46 245 4.0 9.0 0.00 0.00 0.00 79 1013.2
20200329175058 45 223 6.0 10.0 0.00 0.00 0.00 81 1013.2
20200329174656 45 248 7.0 10.0 0.00 0.00 0.00 80 1013.1
20200329174102 45 241 6.0 11.0 0.00 0.00 0.00 82 1013.1
20200329173557 44 231 8.0 13.0 0.00 0.00 0.00 82 1013.0
20200329173211 44 246 9.0 14.0 0.00 0.00 0.00 81 1013.2
20200329172557 45 258 8.0 15.0 0.00 0.00 0.00 81 1013.3
20200329172056 45 244 10.0 18.0 0.00 0.00 0.00 80 1013.3
20200329171635 45 256 13.0 20.0 0.00 0.00 0.00 78 1013.2
20200329171059 46 241 13.0 19.0 0.00 0.00 0.00 77 1013.2
20200329170555 46 236 14.0 17.0 0.00 0.00 0.00 77 1013.2
20200329170152 46 257 10.0 17.0 0.00 0.00 0.00 79 1013.1
20200329165606 45 244 12.0 17.0 0.00 0.00 0.00 79 1013.0
20200329165054 45 256 13.0 17.0 0.00 0.00 0.00 78 1013.2
20200329164627 46 252 12.0 20.0 0.00 0.00 0.00 78 1013.2
20200329164059 46 256 12.0 20.0 0.00 0.00 0.00 78 1013.0
20200329163553 46 257 9.0 14.0 0.00 0.00 0.00 80 1012.9
20200329163110 45 265 8.0 14.0 0.00 0.00 0.00 82 1013.0
20200329162551 45 271 8.0 13.0 0.00 0.00 0.00 83 1013.0
20200329162053 45 260 9.0 13.0 0.00 0.00 0.00 82 1013.0
20200329161640 45 248 9.0 13.0 0.00 0.00 0.00 83 1012.9
20200329161050 45 243 6.0 11.0 0.00 0.00 0.00 84 1012.9
20200329160555 45 263 8.0 11.0 0.00 0.00 0.00 84 1012.9
20200329160123 45 267 9.0 11.0 0.00 0.00 0.00 83 1012.9
20200329155605 45 249 7.0 11.0 0.00 0.00 0.00 84 1012.9
20200329155056 45 253 8.0 11.0 0.00 0.00 0.00 84 1012.8
20200329154709 44 261 7.0 9.0 0.00 0.00 0.00 84 1012.8
20200329154051 44 246 6.0 9.0 0.00 0.00 0.00 85 1012.7
20200329153601 44 238 5.0 8.0 0.00 0.00 0.00 85 1012.7
20200329153155 44 252 5.0 8.0 0.00 0.00 0.00 85 1012.6
20200329152545 44 248 5.0 9.0 0.00 0.00 0.00 85 1012.6
20200329152100 44 246 6.0 9.0 0.00 0.00 0.00 84 1012.5
20200329151619 44 235 6.0 7.0 0.00 0.00 0.00 85 1012.5
20200329151050 43 231 5.0 7.0 0.00 0.00 0.00 86 1012.5
20200329150542 43 213 5.0 7.0 0.00 0.00 0.00 86 1012.5
20200329150107 43 208 5.0 6.0 0.00 0.00 0.00 86 1012.4
20200329145543 42 210 4.0 6.0 0.00 0.00 0.00 88 1012.4
20200329145041 42 215 4.0 6.0 0.00 0.00 0.00 88 1012.3
20200329144727 42 211 4.0 6.0 0.00 0.00 0.00 88 1012.4
20200329144050 42 215 4.0 6.0 0.00 0.00 0.00 88 1012.4
20200329143540 41 215 4.0 6.0 0.00 0.00 0.00 87 1012.3
20200329143122 41 215 4.0 6.0 0.00 0.00 0.00 87 1012.3
20200329142540 41 215 4.0 6.0 0.00 0.00 0.00 87 1012.2
20200329142042 41 214 4.0 6.0 0.00 0.00 0.00 87 1012.2
20200329141625 41 213 4.0 6.0 0.00 0.00 0.00 87 1012.2
20200329141047 40 213 4.0 6.0 0.00 0.00 0.00 88 1012.2
20200329140540 40 221 4.0 6.0 0.00 0.00 0.00 87 1012.2
20200329140059 40 221 4.0 6.0 0.00 0.00 0.00 87 1012.2
20200329135539 40 220 4.0 8.0 0.00 0.00 0.00 87 1012.2
20200329135042 40 217 6.0 8.0 0.00 0.00 0.00 86 1012.1
20200329134714 40 224 4.0 6.0 0.00 0.00 0.00 87 1012.1
20200329134038 40 213 4.0 7.0 0.00 0.00 0.00 87 1012.0
20200329133538 40 213 5.0 7.0 0.00 0.00 0.00 86 1012.1
20200329133048 40 214 5.0 7.0 0.00 0.00 0.00 88 1012.1
20200329132600 39 216 4.0 6.0 0.00 0.00 0.00 89 1012.1
20200329132044 39 218 3.0 5.0 0.00 0.00 0.00 90 1012.1
20200329131613 38 218 4.0 5.0 0.00 0.00 0.00 91 1012.1
20200329131047 38 218 3.0 5.0 0.00 0.00 0.00 91 1012.0
20200329130537 38 218 3.0 5.0 0.00 0.00 0.00 92 1012.0
20200329130055 38 215 3.0 7.0 0.00 0.00 0.00 91 1012.0
20200329125541 38 215 4.0 7.0 0.00 0.00 0.00 92 1012.1
20200329125038 38 216 4.0 6.0 0.00 0.00 0.00 92 1012.1
20200329124609 38 214 3.0 8.0 0.00 0.00 0.00 91 1012.1
20200329124037 38 215 6.0 8.0 0.00 0.00 0.00 91 1012.1
20200329123534 38 222 4.0 6.0 0.00 0.00 0.00 90 1012.1
20200329123158 38 223 4.0 6.0 0.00 0.00 0.00 89 1012.1
20200329122548 39 229 4.0 9.0 0.00 0.00 0.00 86 1012.1
20200329122033 41 197 7.0 9.0 0.00 0.00 0.00 87 1012.1
20200329121604 41 188 7.0 8.0 0.00 0.00 0.00 89 1012.2
20200329121032 40 197 7.0 7.0 0.00 0.00 0.00 93 1012.2
20200329120542 39 202 6.0 7.0 0.00 0.00 0.00 91 1012.2
20200329120101 39 216 5.0 8.0 0.00 0.00 0.00 91 1012.2
20200329115537 39 217 6.0 8.0 0.00 0.00 0.00 91 1012.2
20200329115052 39 216 5.0 7.0 0.00 0.00 0.00 91 1012.2
20200329114538 39 213 5.0 7.0 0.00 0.00 0.00 91 1012.2
20200329114033 39 215 5.0 7.0 0.00 0.00 0.00 90 1012.3
20200329113525 39 222 5.0 7.0 0.00 0.00 0.00 90 1012.3
20200329113115 40 225 5.0 7.0 0.00 0.00 0.00 90 1012.3
20200329112525 40 225 5.0 7.0 0.00 0.00 0.00 90 1012.3
20200329112025 40 226 6.0 8.0 0.00 0.00 0.00 89 1012.3
20200329111626 41 230 6.0 8.0 0.00 0.00 0.00 89 1012.3
20200329111029 41 231 6.0 8.0 0.00 0.00 0.00 91 1012.3
20200329110524 40 240 5.0 7.0 0.00 0.00 0.00 90 1012.4
20200329110036 40 237 4.0 7.0 0.00 0.00 0.00 91 1012.4
20200329105523 40 241 4.0 7.0 0.00 0.00 0.00 90 1012.4
20200329105036 40 229 5.0 7.0 0.00 0.00 0.00 90 1012.5
20200329104601 40 228 5.0 8.0 0.00 0.00 0.00 89 1012.4
20200329104022 40 229 7.0 8.0 0.00 0.00 0.00 88 1012.4
20200329103520 41 229 5.0 8.0 0.00 0.00 0.00 89 1012.5
20200329102518 41 225 5.0 7.0 0.00 0.00 0.00 89 1012.6
20200329102017 41 219 5.0 7.0 0.00 0.00 0.00 89 1012.6
20200329101524 41 215 5.0 6.0 0.00 0.00 0.00 89 1012.6
20200329101024 41 219 5.0 7.0 0.00 0.00 0.00 89 1012.6
20200329100520 41 223 5.0 7.0 0.00 0.00 0.00 89 1012.6
20200329100034 41 223 4.0 6.0 0.00 0.00 0.00 88 1012.6
20200329095515 41 223 4.0 6.0 0.00 0.00 0.00 88 1012.6
20200329095044 41 223 5.0 6.0 0.00 0.00 0.00 88 1012.7
20200329094515 42 225 4.0 6.0 0.00 0.00 0.00 87 1012.7
20200329094015 42 225 4.0 6.0 0.00 0.00 0.00 87 1012.8
20200329093514 42 225 5.0 6.0 0.00 0.00 0.00 87 1012.8
20200329093043 42 229 4.0 6.0 0.00 0.00 0.00 88 1012.8
20200329092514 42 229 4.0 6.0 0.00 0.00 0.00 87 1012.8
20200329092012 42 229 4.0 7.0 0.00 0.00 0.00 87 1012.9
20200329091542 42 229 5.0 7.0 0.00 0.00 0.00 87 1012.9
20200329091012 42 229 6.0 7.0 0.00 0.00 0.00 87 1012.9
20200329090512 42 229 6.0 7.0 0.00 0.00 0.00 87 1012.9
20200329090100 42 224 6.0 7.0 0.00 0.00 0.00 87 1012.9
20200329085515 42 237 5.0 7.0 0.00 0.00 0.00 88 1013.0
20200329085010 42 241 4.0 7.0 0.00 0.00 0.00 87 1013.0
20200329084510 42 238 5.0 8.0 0.00 0.00 0.00 87 1013.0
20200329084014 42 234 6.0 9.0 0.00 0.00 0.00 87 1013.0
20200329083510 42 230 7.0 9.0 0.00 0.00 0.00 88 1013.1
20200329083026 42 230 6.0 8.0 0.00 0.00 0.00 88 1013.1
20200329082511 42 234 6.0 8.0 0.00 0.00 0.00 87 1013.1
20200329082009 42 236 6.0 8.0 0.00 0.00 0.00 87 1013.1
20200329081517 43 234 6.0 8.0 0.00 0.00 0.00 87 1013.2
20200329081007 43 236 6.0 8.0 0.00 0.00 0.00 87 1013.2
20200329080506 42 244 7.0 8.0 0.00 0.00 0.00 88 1013.2
20200329080032 42 240 6.0 8.0 0.00 0.00 0.00 89 1013.3
20200329075507 42 234 6.0 8.0 0.00 0.00 0.00 90 1013.3
20200329075004 42 227 6.0 8.0 0.00 0.00 0.00 89 1013.3
20200329074514 42 228 6.0 7.0 0.00 0.00 0.00 89 1013.3
20200329074002 42 225 5.0 6.0 0.00 0.00 0.00 89 1013.3
20200329073502 42 229 5.0 7.0 0.00 0.00 0.00 89 1013.4
20200329073000 42 229 5.0 7.0 0.00 0.00 0.00 89 1013.4
20200329072600 42 229 6.0 7.0 0.00 0.00 0.00 89 1013.4
20200329072059 42 224 5.0 7.0 0.00 0.00 0.00 90 1013.5
20200329071640 41 227 5.0 7.0 0.00 0.00 0.00 89 1013.5
20200329071139 41 227 5.0 6.0 0.00 0.00 0.00 89 1013.6
20200329070558 41 221 5.0 8.0 0.00 0.00 0.00 89 1013.5
20200329070147 42 215 5.0 8.0 0.00 0.00 0.00 89 1013.6
20200329065603 42 223 6.0 7.0 0.00 0.00 0.00 88 1013.5
20200329065056 43 230 5.0 7.0 0.00 0.00 0.00 87 1013.5
20200329064631 43 244 5.0 7.0 0.00 0.00 0.00 88 1013.5
20200329064108 42 247 5.0 8.0 0.00 0.00 0.00 88 1013.6
20200329063608 42 238 6.0 8.0 0.00 0.00 0.00 88 1013.6
20200329063157 42 232 6.0 8.0 0.00 0.00 0.00 88 1013.7
20200329062554 42 232 6.0 8.0 0.00 0.00 0.00 88 1013.7
20200329062055 42 238 5.0 8.0 0.00 0.00 0.00 89 1013.7
20200329061614 42 237 6.0 8.0 0.00 0.00 0.00 88 1013.7
20200329061054 42 234 6.0 8.0 0.00 0.00 0.00 89 1013.7
20200329060553 42 228 6.0 8.0 0.00 0.00 0.00 89 1013.7
20200329060231 42 225 6.0 8.0 0.00 0.00 0.00 89 1013.8
20200329055553 42 227 6.0 8.0 0.00 0.00 0.00 89 1013.8
20200329055103 42 226 6.0 8.0 0.00 0.00 0.00 90 1013.8
20200329054824 42 225 5.0 7.0 0.00 0.00 0.00 90 1013.8
20200329054052 42 230 5.0 6.0 0.00 0.00 0.00 90 1013.9
20200329053554 42 232 5.0 7.0 0.00 0.00 0.00 90 1013.9
20200329053104 42 235 6.0 7.0 0.00 0.00 0.00 89 1013.9
20200329052553 42 234 6.0 7.0 0.00 0.00 0.00 89 1013.9
20200329052052 42 236 4.0 6.0 0.00 0.00 0.00 89 1014.0
20200329051650 42 245 4.0 6.0 0.00 0.00 0.00 89 1013.9
20200329051053 42 236 4.0 6.0 0.00 0.00 0.00 88 1014.0
20200329050618 43 242 3.0 7.0 0.00 0.00 0.00 87 1013.9
20200329050135 43 242 4.0 7.0 0.00 0.00 0.00 87 1013.9
20200329045551 43 244 5.0 8.0 0.00 0.00 0.00 87 1013.9
20200329045059 43 246 5.0 8.0 0.00 0.00 0.00 87 1013.9
20200329044619 43 242 6.0 8.0 0.00 0.00 0.00 88 1013.8
20200329044051 43 247 5.0 7.0 0.00 0.00 0.00 87 1013.9
20200329043550 44 242 4.0 7.0 0.00 0.00 0.00 87 1013.9
20200329043116 44 242 5.0 8.0 0.00 0.00 0.00 87 1013.9
20200329042550 44 238 6.0 8.0 0.00 0.00 0.00 87 1013.9
20200329042049 45 234 5.0 6.0 0.00 0.00 0.00 85 1013.9
20200329041641 45 246 5.0 8.0 0.00 0.00 0.00 85 1013.9
20200329041050 45 248 6.0 8.0 0.00 0.00 0.00 85 1013.9
20200329040601 45 257 5.0 9.0 0.00 0.00 0.00 84 1013.9
20200329040105 45 255 7.0 10.0 0.00 0.00 0.00 84 1013.9
20200329035548 45 254 7.0 10.0 0.00 0.00 0.00 83 1014.0
20200329035100 45 248 7.0 9.0 0.00 0.00 0.00 83 1014.0
20200329034616 45 256 7.0 9.0 0.00 0.00 0.00 83 1014.0
20200329034111 45 236 6.0 9.0 0.00 0.00 0.00 83 1014.1
20200329033549 46 234 7.0 9.0 0.00 0.00 0.00 82 1014.1
20200329033100 46 244 6.0 9.0 0.00 0.00 0.00 81 1014.0
20200329032547 46 237 6.0 9.0 0.00 0.00 0.00 81 1014.0
20200329032059 46 234 7.0 9.0 0.00 0.00 0.00 81 1013.9
20200329031733 46 238 7.0 9.0 0.00 0.00 0.00 81 1014.0
20200329031047 46 252 7.0 9.0 0.00 0.00 0.00 81 1014.0
20200329030547 46 236 7.0 9.0 0.00 0.00 0.00 81 1014.0
20200329030130 46 232 6.0 8.0 0.00 0.00 0.00 80 1014.0
20200329025551 46 229 6.0 8.0 0.00 0.00 0.00 80 1014.0
20200329025047 46 233 5.0 8.0 0.00 0.00 0.00 79 1014.0
20200329024717 47 240 5.0 9.0 0.00 0.00 0.00 78 1014.0
20200329024048 47 238 7.0 11.0 0.00 0.00 0.00 77 1014.0
20200329023550 47 241 8.0 11.0 0.00 0.00 0.00 77 1014.0
20200329023113 47 243 7.0 10.0 0.00 0.00 0.00 76 1014.0
20200329022545 47 254 7.0 11.0 0.00 0.00 0.00 76 1014.1
20200329022044 47 241 8.0 11.0 0.00 0.00 0.00 76 1014.0
20200329021557 48 269 7.0 11.0 0.00 0.00 0.00 75 1014.1
20200329021054 48 251 7.0 11.0 0.00 0.00 0.00 74 1014.1
20200329020544 48 244 7.0 11.0 0.00 0.00 0.00 74 1014.1
20200329020146 49 244 8.0 13.0 0.00 0.00 0.00 73 1014.1
20200329015544 49 246 8.0 13.0 0.00 0.00 0.00 72 1014.2
20200329015043 49 264 7.0 11.0 0.00 0.00 0.00 72 1014.1
20200329014639 49 265 8.0 12.0 0.00 0.00 0.00 71 1014.2
20200329014044 49 253 8.0 14.0 0.00 0.00 0.00 70 1014.2
20200329013543 49 251 10.0 14.0 0.00 0.00 0.00 69 1014.2
20200329013139 50 246 8.0 11.0 0.00 0.00 0.00 69 1014.2
20200329012543 50 250 8.0 12.0 0.00 0.00 0.00 68 1014.3
20200329012043 50 248 7.0 12.0 0.00 0.00 0.00 69 1014.2
20200329011635 50 278 7.0 13.0 0.00 0.00 0.00 68 1014.3
20200329011051 50 259 9.0 13.0 0.00 0.00 0.00 68 1014.2
20200329010544 50 251 7.0 13.0 0.00 0.00 0.00 68 1014.2
20200329010235 50 247 8.0 15.0 0.00 0.00 0.00 67 1014.2
20200329005541 51 271 8.0 11.0 0.00 0.00 0.00 66 1014.2
20200329005041 51 256 8.0 12.0 0.00 0.00 0.00 66 1014.2
20200329004623 51 257 8.0 12.0 0.00 0.00 0.00 65 1014.1
20200329004047 51 245 9.0 14.0 0.00 0.00 0.00 64 1014.1
20200329003541 51 284 8.0 14.0 0.00 0.00 0.00 64 1014.1
20200329003109 52 284 10.0 14.0 0.00 0.00 0.00 64 1014.1
20200329002547 52 259 9.0 14.0 0.00 0.00 0.00 63 1014.1
20200329002040 52 263 10.0 13.0 0.00 0.00 0.00 63 1014.2
20200329001711 52 273 7.0 15.0 0.00 0.00 0.00 65 1014.1
20200329001040 52 273 9.0 15.0 0.00 0.00 0.00 63 1014.2
20200329000539 52 265 10.0 15.0 0.00 0.00 0.00 62 1014.2
20200329000046 52 281 11.0 15.0 0.00 0.00 0.00 61 1014.4
20200328235541 52 280 9.0 14.0 0.00 0.00 0.00 62 1014.3
20200328235038 52 271 10.0 15.0 0.00 0.00 0.00 62 1014.4
20200328234619 52 273 10.0 15.0 0.00 0.00 0.00 61 1014.5
20200328234037 52 275 11.0 15.0 0.00 0.00 0.00 60 1014.5
20200328233537 52 247 10.0 15.0 0.00 0.00 0.00 60 1014.5
20200328233207 52 254 9.0 14.0 0.00 0.00 0.00 61 1014.5
20200328232543 52 262 9.0 16.0 0.00 0.00 0.00 61 1014.4
20200328232037 53 265 11.0 16.0 0.00 0.00 0.00 59 1014.5
20200328231546 53 263 8.0 15.0 0.00 0.00 0.00 61 1014.5
20200328231039 53 248 9.0 14.0 0.00 0.00 0.00 58 1014.4
20200328230538 54 269 7.0 15.0 0.00 0.00 0.00 61 1014.5
20200328230042 54 250 9.0 15.0 0.00 0.00 0.00 59 1014.5
20200328225536 53 260 8.0 14.0 0.00 0.00 0.00 60 1014.5
20200328225035 54 277 7.0 13.0 0.00 0.00 0.00 60 1014.5
20200328224604 53 223 8.0 14.0 0.00 0.00 0.00 63 1014.7
20200328224034 53 263 9.0 15.0 0.00 0.00 0.00 62 1014.7
20200328223536 53 232 6.0 15.0 0.00 0.00 0.00 62 1014.7
20200328223050 53 239 9.0 14.0 0.00 0.00 0.00 62 1014.7
20200328222533 53 229 8.0 13.0 0.00 0.00 0.00 62 1014.8
20200328222033 53 257 10.0 18.0 0.00 0.00 0.00 64 1014.9